Weather in Voronizh

Ukraine / Sumi District     51°46′40″N   33°27′49″E
temp.,
°C
wind,
m/s
gust,
m/s
humid.,
%
clouds,
%
prec.,
mm/h
press.,
hPa
HPBL,
m
27 october, wed
wed2700:00+3ssw5146923 0.0 1026289
03:00+2ssw5147318 0.0 1025291
06:00+2ssw513805 0.0 1024293
09:00+3ssw613823 0.0 1023419
12:00+8sw710672 0.0 1022665
15:00+9wsw5860100 0.0 1021727
18:00+6w3674100 0.0 1022144
21:00+5w35857 0.0 102378
28 october, thu
thu2800:00+4wsw3493100 0.0 102355
03:00+4sw4994100 0.0 1022201
06:00+6sw51387100 0.2 1020329
09:00+7wsw61287100 0.9 1019439
12:00+8w51191100 0.8 1020454
15:00+8w41090100 1.7 1020434
18:00+8wnw4109389 0.0 1021322
21:00+8wnw39956 0.0 1022179
29 october, fri
fri2900:00+6n38976 0.0 1024160
03:00+4nne33925 0.0 102643
06:00+4nne33905 0.0 102732
09:00+5ne23865 0.0 102993
12:00+9e22681 0.0 1029423
15:00+11se11623 0.0 1029625
18:00+7se11790 0.0 103010
21:00+6se33870 0.0 103025
30 october, sat
sat3000:00+5sse34890 0.0 103149
03:00+4sse34903 0.0 103260
06:00+4sse35925 0.0 103278
09:00+5sse36905 0.0 1032161
12:00+10s46695 0.0 1032446
15:00+12s46615 0.0 1031660
18:00+8sse34795 0.0 103151
21:00+6s36840 0.0 103287
31 october, sun
sun3100:00+5s35860 0.0 103285
03:00+5s35844 0.0 103272
05:00+4sse35851 0.0 103168
08:00+5sse36800 0.0 1031121
11:00+10sse46600 0.0 1030427
14:00+11sse46580 0.0 1028696
17:00+7se35760 0.0 102767
20:00+6se49780 0.0 1027147